Regional Weather Roundup
Issued by NWS

Home | Current Version | Previous Version | Graphics & Text | Print | Product List | Glossary Off
Versions: 1 2 3 4 5 6 7 8 9 10 11 12 13 14 15 16 17 18 19 20 21 22 23 24 25 26 27 28 29 30 31 32 33 34 35 36 37 38 39 40 41 42 43 44 45 46 47 48 49 50

000
ASUS43 KLOT 251108
RWRIL

ILLINOIS REGIONAL WEATHER ROUNDUP
NATIONAL WEATHER SERVICE CHICAGO/ROMEOVILLE IL
600 AM CDT WED MAY 25 2016

NOTE: "FAIR" INDICATES FEW OR NO CLOUDS BELOW 12,000 FEET WITH NO
SIGNIFICANT WEATHER AND/OR OBSTRUCTIONS TO VISIBILITY.

* THESE STATIONS ARE NOT UNDER NWS QUALITY CONTROL. THEY ALSO MAY NOT
  REPORT WEATHER SUCH AS PRECIPITATION OR FOG.

ILZ001-002-007-009-015-016-024-251200-
NORTHWEST ILLINOIS

CITY           SKY/WX    TMP DP  RH WIND       PRES   REMARKS
MOLINE         CLEAR     66  61  84 S7        29.95R
STERLING*      CLEAR     65  62  90 VRB3      29.98R
SAVANNA*       CLEAR     62  60  94 S3        29.96R
$$

ILZ003-004-008-010-011-017-018-251200-
NORTH CENTRAL ILLINOIS

CITY           SKY/WX    TMP DP  RH WIND       PRES   REMARKS
ROCKFORD       MOCLDY    63  59  87 CALM      29.98R
FREEPORT*      CLEAR     61  59  94 S9        29.99R
ROCHELLE*      CLEAR     62  59  91 S6        29.99R
DE KALB*       CLEAR     62  60  92 S6        29.98R
$$

ILZ005-006-012>014-019>023-251200-
NORTHEAST ILLINOIS

CITY           SKY/WX    TMP DP  RH WIND       PRES   REMARKS
CHICAGO-OHARE  MOCLDY    64  60  87 S7        29.97S
CHICAGO-MIDWAY MOCLDY    70  59  68 VRB5      29.97F
AURORA         CLEAR     64  59  83 SE3       29.97R
LANSING*       CLEAR     63  57  80 CALM      29.99S
JOLIET*        PTCLDY    65  61  87 CALM      29.99R
WAUKEGAN       PTCLDY    63  61  93 SW3       29.96S
DUPAGE AIRPORT CLEAR     63  58  83 S3        29.97R
KANKAKEE*      CLEAR    N/A N/A N/A SE3       30.01R
WHEELING       CLEAR     65  60  84 SE3       29.97F
MORRIS*        PTCLDY    65  61  86 SE3       29.97R
ROMEOVILLE*    CLEAR     64  58  82 S7        29.98R
NORTHERLY ISL    N/A     66  57  72 S5          N/A
NORTHERLY ISL    N/A     66  57  72 S5          N/A
$$

LMZ740>746-251200-
SOUTHERN LAKE MICHIGAN

STATION/POSITION SKY/WX   TEMP    WIND        PRES    VSBY  WAVE
                          AIR SEA DIR/SP/G                  HT/PER
                          (F)     (DEG/KT/KT) (MB)    (MI)  (FT/S)
SOUTHERN BUOY              54 49  160/  8/  8 1014.4F         1
WILMETTE HARBOR            61 56  170/  6/  6   N/A           1
HARRISON CRIB              72     190/ 11/ 11   N/A
BURNHAM HARBOR             63     140/  3/  8   N/A
CALUMET HARBOR             69     170/  4/  6 1014.7F
BURNS HARBOR               69     180/  7/ 12 1015.9F
MICHIGAN CITY              69     140/  9/ 12   N/A
MICHIGAN CITY 6N           63 57  150/  4/  6   N/A           0
ST. JOSEPH                 62 58  140/  6/  6   N/A           1
$$

ILZ025>027-034>036-040-047-049-050-058-095>099-251200-
WEST-CENTRAL ILLINOIS

CITY           SKY/WX    TMP DP  RH WIND       PRES   REMARKS
QUINCY         CLOUDY    64  61  90 S10       29.95S
GALESBURG*     CLEAR     62  61  96 SE6       29.98R
MACOMB*        MOCLDY    63  61  95 S7        29.99R
JACKSONVILLE*  CLEAR     64  61  91 S9        29.99S
PITTSFIELD*    MOCLDY    63  62  94 S6        29.99S
$$

ILZ028>032-037-038-041>044-048-051>054-059>061-251200-
CENTRAL ILLINOIS

CITY           SKY/WX    TMP DP  RH WIND       PRES   REMARKS
PONTIAC        MOCLDY    65  62  90 S5        30.01R
BLOOMINGTON    CLEAR     63  63 100 S10       30.03R
DECATUR        CLOUDY    63  61  93 S7        30.03R
PEORIA         CLEAR     64  61  90 S8        30.00R
LACON*         CLEAR     64  61  90 S3        29.98R
LINCOLN*       CLEAR     64  62  96 S3        30.01R
SPRINGFIELD    CLEAR     64  62  93 S10       30.02R
TAYLORVILLE    PTCLDY    63  62  96 S9        30.03R
$$

ILZ033-039-045-046-055>057-062-063-251200-
EAST-CENTRAL ILLINOIS

CITY           SKY/WX    TMP DP  RH WIND       PRES   REMARKS
CHAMPAIGN      CLOUDY    62  59  90 S8        30.03R
RANTOUL*       CLEAR     64  60  86 S6        30.02R
MATTOON        CLOUDY    64  61  90 S6        30.02R
PARIS*         CLOUDY    62  59  89 CALM      30.04R
$$

ILZ079-100>102-251200-
SOUTHWEST ILLINOIS

CITY           SKY/WX    TMP DP  RH WIND       PRES   REMARKS
ALTON          MOCLDY    61  60  97 SE6       30.03R
CAHOKIA*       PTCLDY    63  60  90 SE6       30.03R
SPARTA*        MOCLDY    63  61  94 S3        30.06R
$$

ILZ064>066-069>071-074>076-080>082-084>086-088>090-092>094-251200-
SOUTH-CENTRAL ILLINOIS

CITY           SKY/WX    TMP DP  RH WIND       PRES   REMARKS
CARBONDALE     MOCLDY    63  61  93 CALM      30.06R
CAIRO*         CLOUDY    65  64  95 CALM      30.07R
EFFINGHAM*     MOCLDY    64  64 100 S3        30.06R
MARION         CLOUDY    64  63  94 CALM      30.07R
MT. VERNON     CLOUDY    61  55  82 CALM      30.06R
CENTRALIA*     CLOUDY    63  63  99 CALM      30.05R FOG
SALEM*         CLEAR     63  61  93 S3        30.05R FOG
METROPOLIS*    CLOUDY    65  65  99 CALM      30.07R
$$

ILZ067-068-072-073-078-083-087-091-251200-
SOUTHEAST ILLINOIS

CITY           SKY/WX    TMP DP  RH WIND       PRES   REMARKS
LAWRENCEVILLE  CLEAR     63  60  90 CALM      30.05R FOG
FLORA*         CLOUDY    63  62  97 CALM      30.05R FOG
FAIRFIELD*     CLOUDY    62  61  98 CALM      30.04R
HARRISBURG*    CLOUDY    63  63  98 CALM      30.06R FOG
ROBINSON*      CLEAR     60  58  96 S5        30.06R
CARMI*         CLOUDY    63  63  98 CALM      30.06R FOG
$$

ABBREVIATIONS USED IN REMARKS
   TC - TEMPERATURE IN CELSIUS
  WCI - WIND CHILL INDEX
   HX - HEAT INDEX
  VSB - VISIBILITY
$$




USA.gov is the U.S. government's official web portal to all federal, state and local government web resources and services.